Weather History for Hurlburt Field, FL

Change the Weather History Date:

Saturday, August 16, 2014

  Actual Average Record
Temperature  
Mean Temperature 80 °F -  
Max Temperature 91 °F 87 °F 92 °F (2007)
Min Temperature 70 °F 72 °F 65 °F (2011)
Cooling Degree Days 15    
Growing Degree Days 30 (Base 50)    
Moisture  
Dew Point 69 °F    
Average Humidity 64    
Maximum Humidity 84    
Minimum Humidity 45    
Precipitation  
Precipitation 0.00 in - - ()
Sea Level Pressure  
Sea Level Pressure 30.03 in    
Wind  
Wind Speed 6 mph (West)    
Max Wind Speed 13 mph    
Max Gust Speed 16 mph    
Visibility 10 miles    
Events      
Averages and records for this station are not official NWS values.
T = Trace of Precipitation, MM = Missing Value Source: NWS Daily Summary

Daily Weather History Graph

Daily Weather History Graph

Search for Another Location

Airport:

Trip Planner

Search our weather history database for the weather conditions in past years. The results will help you decide how hot, cold, wet, or windy it might be!

Date:

Astronomy

Aug. 16, 2014 Rise Set
Actual Time 6:14 AM CDT 7:27 PM CDT
Civil Twilight 5:48 AM CDT 7:52 PM CDT
Nautical Twilight 5:18 AM CDT 8:22 PM CDT
Astronomical Twilight 4:47 AM CDT 8:53 PM CDT
Moon 11:42 PM CDT (8/16) 12:29 PM CDT (8/16)
Length of Visible Light 14h 03m
Length of Day
13h 13m
Waning Gibbous, 58% of the Moon is Illuminated
Aug 16
Waning Gibbous
Aug 17
Last Quarter
Aug 25
New
Sep 2
First Quarter
Sep 8
Full

Hourly Weather History & Observations

Time (CDT) Temp. Heat Index Dew Point Humidity Pressure Visibility Wind Dir Wind Speed Gust Speed Precip Events Conditions
12:58 AM 79.9 °F - 64.8 °F 60% 29.99 in 10.0 mi WNW 4.6 mph - N/A   Clear
1:58 AM 79.3 °F - 65.5 °F 62% 29.99 in 10.0 mi NW 4.6 mph - N/A   Clear
2:58 AM 72.5 °F - 66.2 °F 81% 29.98 in 10.0 mi NNE 3.5 mph - N/A   Clear
3:58 AM 70.9 °F - 65.7 °F 83% 29.99 in 10.0 mi North 2.3 mph - 0.00 in   Partly Cloudy
4:58 AM 72.5 °F - 66.4 °F 81% 30.00 in 10.0 mi North 3.5 mph - N/A   Mostly Cloudy
5:58 AM 70.5 °F - 64.9 °F 82% 30.01 in 10.0 mi North 4.6 mph - N/A   Clear
6:58 AM 71.6 °F - 66.4 °F 84% 30.03 in 10.0 mi North 5.8 mph - N/A   Clear
7:58 AM 77.0 °F - 67.6 °F 73% 30.04 in 10.0 mi North 3.5 mph - N/A   Clear
8:58 AM 83.8 °F 86.7 °F 67.5 °F 58% 30.05 in 10.0 mi NW 3.5 mph - N/A   Clear
9:58 AM 88.9 °F 90.7 °F 64.9 °F 45% 30.06 in 10.0 mi WSW 8.1 mph - N/A   Clear
10:58 AM 89.2 °F 91.6 °F 66.2 °F 46% 30.07 in 10.0 mi WSW 9.2 mph - N/A   Clear
11:58 AM 89.8 °F 95.1 °F 70.2 °F 52% 30.06 in 10.0 mi WSW 11.5 mph - N/A   Clear
12:58 PM 90.0 °F 95.0 °F 69.4 °F 51% 30.06 in 10.0 mi SW 12.7 mph - N/A   Partly Cloudy
1:58 PM 90.0 °F 95.4 °F 70.0 °F 52% 30.05 in 10.0 mi West 10.4 mph - N/A   Partly Cloudy
2:58 PM 89.8 °F 95.6 °F 70.7 °F 53% 30.03 in 10.0 mi WSW 12.7 mph 16.1 mph N/A   Clear
3:58 PM 89.6 °F 94.7 °F 69.8 °F 52% 30.02 in 10.0 mi SW 12.7 mph - N/A   Clear
4:58 PM 88.3 °F 94.5 °F 71.2 °F 57% 30.02 in 10.0 mi SW 12.7 mph - N/A   Clear
5:58 PM 86.9 °F 92.5 °F 70.9 °F 59% 30.02 in 10.0 mi WSW 10.4 mph - N/A   Clear
6:58 PM 85.8 °F 91.5 °F 71.2 °F 62% 30.03 in 10.0 mi SW 10.4 mph - N/A   Scattered Clouds
7:53 PM 84.2 °F 88.4 °F 69.8 °F 62% 30.02 in 10.0 mi North 8.1 mph - N/A   Mostly Cloudy
7:58 PM 83.7 °F 87.5 °F 69.6 °F 62% 30.03 in 10.0 mi North 6.9 mph - N/A   Mostly Cloudy
8:13 PM 82.4 °F 86.3 °F 69.8 °F 66% 30.01 in 10.0 mi West 5.8 mph - N/A   Mostly Cloudy
8:18 PM 82.4 °F 86.3 °F 69.8 °F 66% 30.02 in 10.0 mi Variable 2.3 mph - N/A   Scattered Clouds
8:58 PM 84.2 °F 89.6 °F 71.6 °F 66% 30.03 in 10.0 mi SW 8.1 mph - N/A   Scattered Clouds
9:03 PM 84.2 °F 90.9 °F 73.4 °F 70% 30.03 in 10.0 mi SW 6.9 mph - N/A   Mostly Cloudy
9:13 PM 84.2 °F 89.6 °F 71.6 °F 66% 30.03 in 10.0 mi SW 6.9 mph - N/A   Scattered Clouds
9:23 PM 84.2 °F 90.9 °F 73.4 °F 70% 30.03 in 10.0 mi SW 6.9 mph - N/A   Mostly Cloudy
9:33 PM 84.2 °F 90.9 °F 73.4 °F 70% 30.03 in 10.0 mi SW 8.1 mph - N/A   Scattered Clouds
9:58 PM 84.2 °F 89.9 °F 72.1 °F 67% 30.04 in 10.0 mi WSW 8.1 mph - N/A   Scattered Clouds
10:58 PM 83.8 °F 88.9 °F 71.4 °F 66% 30.05 in 10.0 mi SW 6.9 mph - N/A   Scattered Clouds
11:58 PM 83.7 °F 88.9 °F 71.8 °F 67% 30.04 in 10.0 mi WSW 5.8 mph - N/A   Clear